Regional Weather Roundup
Issued by NWS

Home | Current Version | Previous Version | Graphics & Text | Print | Product List | Glossary On
Versions: 1 2 3 4 5 6 7 8 9 10 11 12 13 14 15 16 17 18 19 20 21 22 23 24 25 26 27 28 29 30 31 32 33 34 35 36 37 38 39 40 41 42 43 44 45 46 47 48 49 50
000
ASUS43 KBIS 161602
RWRND

NORTH DAKOTA REGIONAL WEATHER ROUNDUP
NATIONAL WEATHER SERVICE BISMARCK ND
1000 AM CST SAT DEC 16 2017

NOTE: "FAIR" INDICATES FEW OR NO CLOUDS BELOW 12,000 FEET WITH NO
SIGNIFICANT WEATHER AND/OR OBSTRUCTIONS TO VISIBILITY.


NDZ001>003-009>011-017-161700-
NORTHWEST NORTH DAKOTA

CITY           SKY/WX    TMP DP  RH WIND       PRES   REMARKS
WILLISTON      CLEAR     27  20  75 S5        29.93R
MINOT          CLOUDY    37  30  75 W20       29.85R
MINOT AFB      CLOUDY    34  29  83 W15       29.84R
$$

NDZ018>021-031>035-040>046-161700-
SOUTHWEST NORTH DAKOTA

CITY           SKY/WX    TMP DP  RH WIND       PRES   REMARKS
BISMARCK       CLOUDY    37  33  85 NW9       29.89R
DICKINSON      CLOUDY    29  25  85 NW9       29.89R
GARRISON         N/A     33  30  88 NW14      29.87R
HETTINGER ARPT CLOUDY    29  26  89 NW9       29.92R
$$

NDZ004>008-012>016-024-026-027-054-161700-
NORTHEAST NORTH DAKOTA

CITY           SKY/WX    TMP DP  RH WIND       PRES   REMARKS
GRAND FORKS    CLOUDY    22  19  89 SW6       29.85R WCI  14
GRND FRKS AFB  CLOUDY    22  19  85 SW7       29.85R WCI  14
DEVILS LAKE    MOSUNNY   24  23  96 N3        29.83R FOG
$$

NDZ022-023-025-028>030-036>039-047>053-161700-
SOUTHEAST NORTH DAKOTA

CITY           SKY/WX    TMP DP  RH WIND       PRES   REMARKS
FARGO          CLOUDY    28  23  81 S6        29.86R
JAMESTOWN      CLOUDY    36  32  85 NW10      29.84R
$$





USA.gov is the U.S. government's official web portal to all federal, state and local government web resources and services.